Wind_Speed
17 17 17 17 17 18 19 20 21 21 21 21 21 20 18 16 16 15 15 15 15 15 14 14 13 13 13 12 11 11 11 10 10 10 9 9 9 9 10 10 11 13 16
19 19 19 20 21 22 22 23 23 23 23 23 23 22 20 18 18 18 18 18 19 19 18 17 16 16 16 15 14 14 13 12 12 12 11 11 11 11 11 12 12 11 12
21 22 22 23 23 24 24 24 24 25 25 24 24 24 22 20 19 19 19 20 21 21 21 21 19 18 19 18 17 16 15 14 13 13 13 13 13 12 13 13 13 12 12
21 22 23 24 25 25 25 24 25 25 25 24 23 23 23 22 21 20 21 21 22 23 23 23 22 21 21 21 20 18 17 15 14 14 15 15 15 13 13 13 13 13 13
24 25 26 26 26 26 25 25 25 25 25 24 23 23 23 23 23 23 23 24 24 24 24 24 24 23 23 22 21 20 18 16 15 15 16 16 15 14 14 14 14 14 13
24 26 27 27 27 27 27 26 26 26 26 26 25 25 25 25 25 25 25 25 25 25 25 25 25 24 24 23 22 21 20 18 17 17 17 17 15 14 15 15 15 14 14
23 25 27 27 27 28 28 28 28 28 28 28 28 28 27 27 27 26 26 26 26 26 26 25 25 25 25 24 24 23 22 21 19 18 18 18 16 16 15 15 15 15 14
25 25 26 28 29 29 30 30 30 30 31 31 31 31 30 30 29 28 28 27 27 27 27 27 27 26 26 26 26 26 25 23 22 21 20 20 18 16 16 15 15 14 13
29 29 29 30 32 33 33 33 33 33 34 33 33 33 32 32 31 30 29 29 29 29 29 29 29 28 28 28 28 28 27 26 25 24 23 22 21 19 17 16 15 14 13
32 32 32 33 33 33 34 35 35 35 35 35 35 34 33 32 31 30 30 29 29 29 30 30 29 29 29 29 28 28 27 26 26 25 25 25 25 23 20 19 17 16 15
32 31 31 32 31 30 30 32 34 35 35 35 35 34 32 31 30 29 29 28 29 29 29 29 29 30 29 29 28 27 26 26 26 25 26 27 27 26 23 21 20 19 17
31 30 29 30 30 29 28 29 31 33 34 35 35 34 32 31 30 29 29 28 28 28 28 28 29 29 29 29 29 28 27 27 25 25 25 27 28 28 26 24 23 22 21
29 29 29 30 31 31 31 30 31 32 34 35 35 35 34 34 33 32 32 31 31 30 30 30 30 30 30 29 29 29 29 29 27 26 26 27 28 29 28 28 26 26 25
32 32 32 33 34 35 35 34 33 33 35 37 38 38 38 37 36 36 36 35 34 34 34 35 35 34 34 33 32 32 32 32 31 31 30 30 31 31 31 31 30 30 30
36 35 35 36 37 38 38 38 38 37 37 38 39 39 40 40 40 39 39 38 38 38 37 37 37 37 37 37 37 37 37 36 37 36 36 36 36 36 36 35 35 34 34
36 37 37 38 40 41 41 41 41 41 41 41 41 41 42 42 43 43 43 43 42 42 41 40 40 40 40 39 39 39 39 39 39 40 40 41 42 42 42 41 40 40 40
37 38 38 39 41 42 43 43 43 43 44 44 44 45 46 46 46 46 47 47 47 46 46 45 44 44 44 44 43 43 42 42 41 41 41 42 42 42 42 42 42 42 42
41 43 44 44 45 46 47 49 50 50 50 51 51 51 51 51 52 52 52 52 52 52 51 51 50 50 49 49 48 48 47 46 46 45 45 44 43 43 43 43 42 42 42
44 46 47 49 49 50 51 53 54 55 55 55 56 57 57 57 58 58 58 58 58 57 57 56 56 56 55 54 54 53 53 52 51 50 50 49 48 47 47 46 46 45 44
46 47 49 50 51 52 52 52 53 56 57 58 58 59 60 61 61 62 63 63 63 63 62 62 62 61 61 60 59 58 58 57 56 56 55 54 53 52 51 51 50 49 48
48 50 52 53 55 56 56 56 57 58 60 61 62 63 63 62 62 62 63 65 66 67 67 67 66 66 66 65 64 63 63 62 61 60 60 59 58 57 56 56 54 53 51
54 57 59 62 63 64 65 65 64 64 65 66 67 67 68 67 67 66 65 66 67 67 68 68 68 67 68 68 68 67 66 65 65 64 64 63 62 61 60 59 58 56 54
63 64 65 67 69 71 71 71 71 70 70 72 72 72 73 73 73 72 72 71 70 71 71 71 70 69 68 68 67 67 67 67 67 66 66 66 65 63 62 61 59 58 57
70 70 70 70 72 74 76 78 78 77 76 77 77 77 77 78 78 78 78 77 76 76 76 76 75 74 72 70 69 68 67 66 66 65 66 66 65 65 63 62 60 59 58
75 74 74 74 76 78 81 82 83 82 81 80 80 80 79 79 79 79 80 81 81 80 80 81 81 80 78 76 74 72 70 68 67 66 66 65 65 65 64 62 60 59 58
79 79 79 80 81 82 82 82 81 79 77 75 75 76 76 76 76 77 80 81 82 81 82 82 83 83 82 80 78 77 75 73 71 70 68 67 66 65 65 64 63 61 59
Wind_Direction
242 249 256 263 270 277 282 286 288 290 292 292 289 282 274 268 268 269 266 263 262 263 265 268 270 273 275 275 277 279 280 282 280 273 267 260 252 248 246 246 245 239 233
247 253 260 266 272 277 281 283 285 286 287 287 285 278 268 263 263 266 266 263 262 261 262 264 266 269 272 275 276 277 277 276 276 272 267 262 257 252 246 243 243 243 239
255 260 265 269 273 276 278 280 282 283 284 283 281 274 264 258 259 262 265 264 262 261 261 262 264 266 269 272 273 274 273 270 272 273 270 266 265 262 255 247 244 242 240
260 262 265 269 272 275 276 277 279 280 280 278 274 268 261 258 258 261 263 264 262 260 259 259 261 264 267 268 268 268 267 265 267 271 270 266 265 263 258 252 247 244 242
262 263 265 268 271 273 274 275 276 276 275 272 267 262 260 260 262 264 264 263 262 260 259 258 258 260 261 261 260 260 260 260 262 265 266 264 261 256 251 247 246 245 244
268 269 270 271 272 274 275 275 273 272 270 267 263 262 262 263 264 264 265 263 261 259 257 256 256 257 257 257 256 255 255 255 257 258 260 260 256 248 242 238 239 241 241
268 271 273 274 274 275 275 274 272 270 267 264 263 264 264 264 263 263 262 261 260 258 255 254 253 253 254 254 254 255 254 252 250 250 252 254 251 246 239 237 237 238 239
268 268 270 273 275 275 274 273 272 270 267 266 265 265 265 265 264 263 261 260 259 257 254 252 251 252 252 253 254 254 254 252 248 244 244 245 244 239 237 237 238 236 235
276 277 276 275 275 274 273 272 270 269 268 268 267 267 267 266 265 263 261 259 257 256 254 252 252 252 254 255 256 256 256 254 250 243 241 240 238 235 236 236 238 237 235
283 283 282 279 277 276 274 271 268 266 265 265 265 265 264 263 261 260 257 256 254 253 253 252 252 253 254 256 257 258 257 255 251 244 240 239 237 237 237 237 239 240 238
284 283 282 280 278 276 274 271 268 266 264 262 261 259 257 255 254 254 253 251 250 250 251 252 253 253 254 255 256 256 257 256 253 246 240 239 239 239 239 239 239 242 244
282 282 281 280 278 274 271 269 268 266 265 263 259 256 253 250 250 250 249 248 248 248 249 250 251 251 252 252 252 252 252 253 252 247 242 241 241 241 240 240 240 243 247
280 279 275 274 274 273 270 267 267 265 264 263 261 257 254 252 251 250 249 248 248 248 248 248 249 250 250 251 251 250 249 249 249 247 243 242 244 244 243 243 243 245 248
281 278 275 271 270 269 269 269 267 265 264 263 263 261 259 257 255 253 251 249 248 248 248 248 249 250 251 251 251 250 249 249 249 248 246 245 246 248 249 249 249 249 251
283 280 276 274 272 270 269 269 268 266 263 262 262 262 261 260 259 257 255 253 251 250 250 250 251 252 252 252 252 252 251 250 251 251 250 249 249 250 252 254 254 254 254
287 285 281 277 275 273 271 270 269 268 266 263 262 261 260 259 258 258 257 256 255 254 254 254 254 255 255 254 254 254 253 252 252 252 252 252 252 253 254 255 256 256 256
288 286 284 281 277 275 274 273 271 270 269 268 266 264 262 261 259 258 257 257 257 256 255 255 255 255 256 256 255 255 254 253 253 253 253 254 254 255 256 257 257 257 256
282 281 280 278 275 273 273 273 273 272 271 271 269 268 266 264 262 260 259 258 257 256 256 255 255 255 255 255 256 256 255 254 254 253 253 254 254 255 256 257 257 257 256
281 279 277 275 273 272 272 272 272 271 270 269 268 268 267 265 264 263 261 260 259 258 257 257 256 255 254 254 255 255 256 256 255 254 254 254 254 254 255 256 256 256 257
284 281 278 277 275 275 274 273 272 271 270 269 268 267 266 266 264 263 262 261 260 259 258 257 257 256 255 254 254 254 254 254 255 255 255 255 255 255 255 255 256 256 257
286 283 281 279 278 277 276 274 272 270 269 269 269 268 267 266 266 265 264 263 262 261 259 258 257 256 256 255 254 254 254 254 253 254 254 254 255 255 255 256 256 255 256
285 283 282 281 280 279 277 275 273 270 268 266 266 267 267 267 267 266 265 263 262 261 260 259 258 257 256 255 255 254 253 253 253 253 253 253 253 254 255 255 256 256 256
288 286 284 283 282 281 280 277 274 272 271 270 268 267 267 266 266 266 265 264 263 262 260 259 258 257 256 255 255 254 253 252 252 252 252 252 252 252 253 254 255 256 256
290 288 286 284 283 283 283 283 281 279 276 274 272 270 268 267 266 266 265 264 263 262 261 260 259 258 256 255 254 253 252 251 251 250 250 250 250 251 251 251 253 254 254
291 288 286 285 284 283 284 284 284 284 282 280 278 275 272 269 267 265 264 263 262 262 261 260 259 258 256 255 254 252 251 250 249 249 249 249 248 249 249 249 250 250 251
290 288 286 285 285 285 286 286 286 286 285 283 280 278 275 272 268 264 262 260 259 258 257 257 257 256 255 254 253 252 250 250 249 249 249 249 248 248 248 248 249 249 249
Height
5866 5866 5866 5866 5866 5865 5865 5864 5864 5863 5862 5862 5861 5861 5860 5859 5859 5859 5859 5859 5859 5859 5859 5859 5859 5859 5859 5858 5858 5858 5858 5858 5858 5857 5857 5857 5857 5857 5858 5858 5859 5859 5860
5863 5864 5863 5863 5862 5862 5861 5861 5860 5859 5858 5858 5857 5857 5857 5856 5855 5855 5856 5856 5856 5856 5856 5856 5856 5856 5856 5856 5856 5856 5856 5856 5856 5856 5856 5855 5855 5855 5855 5856 5857 5857 5858
5860 5860 5860 5859 5859 5858 5857 5857 5856 5855 5854 5853 5853 5853 5853 5852 5851 5851 5852 5852 5852 5852 5852 5852 5852 5852 5852 5852 5853 5853 5853 5853 5853 5853 5853 5853 5854 5854 5854 5854 5854 5855 5856
5856 5855 5855 5855 5854 5853 5852 5852 5851 5850 5849 5849 5848 5848 5848 5848 5847 5847 5847 5847 5847 5847 5847 5848 5848 5848 5848 5848 5849 5849 5849 5850 5850 5850 5850 5850 5851 5851 5851 5851 5851 5852 5853
5850 5850 5850 5849 5848 5848 5847 5846 5846 5845 5844 5843 5843 5843 5843 5843 5842 5842 5842 5842 5842 5842 5842 5843 5843 5843 5844 5844 5845 5845 5846 5846 5847 5847 5846 5846 5847 5848 5848 5848 5849 5849 5849
5846 5845 5845 5844 5844 5843 5842 5841 5840 5840 5839 5838 5838 5838 5837 5837 5837 5836 5836 5837 5837 5837 5837 5837 5838 5838 5839 5839 5840 5841 5841 5842 5843 5843 5842 5842 5843 5844 5845 5845 5845 5846 5846
5842 5841 5840 5839 5838 5837 5836 5835 5834 5834 5833 5833 5832 5832 5831 5831 5831 5830 5830 5830 5831 5831 5832 5832 5832 5833 5833 5834 5835 5836 5837 5838 5839 5839 5839 5839 5840 5840 5841 5842 5842 5843 5843
5838 5837 5836 5834 5833 5832 5830 5829 5828 5827 5827 5827 5826 5826 5825 5824 5824 5824 5824 5824 5824 5825 5825 5826 5826 5827 5828 5828 5829 5830 5831 5832 5834 5835 5835 5835 5836 5837 5837 5838 5839 5840 5840
5831 5831 5830 5828 5827 5825 5824 5822 5821 5820 5820 5819 5819 5819 5818 5817 5817 5817 5817 5817 5817 5818 5818 5819 5820 5821 5822 5822 5823 5824 5825 5826 5828 5829 5830 5831 5832 5833 5834 5834 5835 5836 5837
5824 5823 5821 5820 5819 5817 5816 5814 5813 5813 5812 5811 5811 5810 5810 5810 5809 5809 5809 5810 5810 5810 5811 5812 5813 5814 5815 5816 5817 5818 5819 5820 5822 5824 5825 5826 5827 5828 5829 5830 5831 5833 5834
5816 5814 5813 5812 5811 5810 5808 5806 5805 5804 5803 5803 5802 5802 5801 5801 5801 5801 5801 5801 5802 5802 5803 5805 5806 5807 5808 5809 5810 5811 5812 5814 5815 5818 5820 5821 5822 5823 5824 5825 5827 5828 5830
5809 5808 5806 5804 5803 5802 5801 5800 5798 5797 5796 5795 5794 5794 5793 5793 5793 5793 5793 5793 5794 5795 5796 5797 5798 5799 5800 5801 5803 5804 5806 5807 5809 5811 5814 5815 5816 5817 5818 5820 5821 5823 5824
5803 5802 5800 5798 5795 5794 5794 5793 5792 5790 5789 5787 5787 5786 5786 5785 5785 5785 5785 5785 5786 5787 5788 5789 5790 5791 5792 5794 5796 5797 5799 5800 5802 5805 5807 5809 5810 5811 5813 5814 5816 5817 5819
5797 5795 5793 5791 5789 5786 5785 5784 5783 5782 5781 5780 5779 5778 5777 5777 5777 5777 5777 5777 5777 5778 5779 5780 5781 5783 5784 5786 5788 5790 5792 5793 5795 5797 5800 5801 5803 5804 5806 5808 5810 5812 5813
5789 5787 5785 5783 5780 5778 5776 5775 5774 5773 5772 5771 5769 5768 5768 5768 5768 5768 5768 5769 5769 5769 5770 5771 5772 5774 5775 5777 5779 5781 5783 5785 5787 5789 5791 5793 5795 5797 5799 5801 5803 5805 5806
5781 5779 5777 5774 5771 5769 5767 5765 5763 5762 5761 5760 5759 5758 5757 5756 5757 5757 5758 5758 5759 5760 5761 5762 5763 5764 5766 5767 5769 5771 5773 5775 5778 5780 5781 5783 5786 5788 5790 5792 5794 5796 5798
5773 5770 5767 5765 5762 5759 5757 5755 5753 5751 5749 5748 5747 5746 5745 5744 5744 5745 5745 5746 5747 5748 5750 5752 5753 5754 5755 5757 5759 5761 5763 5765 5767 5769 5771 5773 5775 5778 5780 5783 5785 5787 5789
5764 5760 5757 5753 5751 5748 5745 5742 5740 5738 5736 5734 5733 5732 5731 5731 5730 5731 5731 5732 5733 5734 5736 5738 5740 5742 5744 5745 5747 5749 5751 5754 5756 5758 5760 5763 5765 5768 5770 5772 5774 5776 5779
5754 5750 5745 5741 5738 5734 5732 5729 5726 5723 5721 5719 5718 5716 5716 5715 5715 5715 5716 5717 5718 5719 5721 5723 5725 5727 5730 5732 5734 5736 5738 5741 5743 5746 5749 5751 5754 5757 5759 5761 5764 5766 5768
5743 5739 5734 5730 5725 5721 5718 5714 5711 5708 5705 5703 5701 5699 5698 5698 5698 5698 5698 5699 5701 5703 5704 5706 5708 5710 5713 5716 5719 5722 5724 5727 5729 5732 5735 5738 5741 5744 5747 5749 5752 5755 5757
5730 5725 5720 5715 5711 5706 5702 5698 5695 5691 5688 5685 5683 5681 5680 5679 5679 5680 5681 5681 5682 5684 5686 5688 5691 5693 5696 5699 5702 5705 5708 5712 5715 5717 5720 5723 5727 5730 5733 5736 5739 5743 5746
5715 5708 5702 5697 5691 5687 5682 5679 5675 5672 5669 5667 5665 5663 5661 5660 5660 5661 5662 5663 5663 5665 5667 5669 5672 5675 5677 5680 5684 5687 5691 5695 5698 5701 5705 5708 5711 5715 5718 5721 5725 5728 5732
5696 5689 5682 5676 5669 5664 5659 5655 5652 5650 5647 5644 5643 5642 5641 5640 5640 5640 5641 5643 5644 5645 5647 5649 5652 5655 5659 5662 5665 5669 5673 5677 5680 5684 5688 5692 5696 5699 5703 5706 5710 5713 5717
5673 5666 5659 5653 5646 5639 5633 5628 5624 5621 5620 5618 5617 5617 5617 5616 5616 5616 5617 5619 5622 5624 5626 5628 5631 5635 5639 5643 5646 5650 5654 5658 5662 5666 5670 5674 5679 5683 5687 5691 5694 5698 5702
5648 5642 5636 5629 5622 5615 5608 5602 5596 5593 5590 5588 5586 5587 5589 5590 5589 5589 5590 5593 5596 5600 5602 5605 5608 5612 5617 5622 5626 5631 5635 5639 5643 5647 5652 5657 5661 5666 5670 5675 5679 5683 5687
5625 5618 5611 5605 5598 5591 5584 5577 5572 5568 5564 5561 5558 5556 5557 5559 5560 5560 5560 5564 5569 5574 5577 5580 5583 5587 5592 5598 5604 5609 5614 5619 5624 5628 5634 5639 5644 5649 5653 5658 5662 5666 5671